If you wish to contribute or participate in the discussions about articles you are invited to join SKYbrary as a registered user

Tromso/Langnes

From SKYbrary Wiki
ENTC
Airport
ICAO: ENTC
Summary
Name Tromso/Langnes
Region Europe
Territory Norway NO.gif
Location Tromso, Norway
Serving
Coordinates 69° 40' 54", 18° 55' 6"
Runways
Designator Length Width Surface ROPS
1/19 2392 m7,847.769 ft 45 m147.638 ft ASP yes/yes
METAR
Observation ENTC 251750Z 27009KT 9999 BKN031 10/05 Q1015 NOSIG RMK WIND 2600FT 25017KT
Station Tromso / Langnes
Date/Time 25 August 2016 17:50:00
Wind direction 270°
Wind speed 09 kts
Lowest cloud amount broken clouds
Temperature 10°C
Dew point 5°C
Humidity 71%
QNH 1015 hPa
Weather condition n/a


Tromsø Airport

ICAO: ENTC IATA: TOS

Description

International airport serving city of Tromso in northern Norway.

Climatology

Borderline Subpolar Oceanic/Continental subarctic climate (because of winter temperatures) (Köppen climate classification Cfc/Dfc) - uniform precipitation distribution, temperatures are moderated by the proximity of the ocean and warm currents - cool summers and comparatively mild winters.

Tromso has a reputation for heavy snowfalls in winter.

Maps

Terrain

Loading map...

Airport Layout

Loading map...


Accidents & Serious Incidents at or in vicinity of ENTC

None on SKYbrary